This is the latest recevied weather packets stored in our database for station/object VK5GR-12. If no packets are shown the sender has not sent any weather packets the latest 10 day(s).
| Time | Temp. | Humidity | Pressure | Rain* | Wind** | Luminosity | Snow |
|---|---|---|---|---|---|---|---|
| 1777462638 | 21.67° C | 40% | 1023.3 hPa | 0 mm | - | 0 W/m² | - |
| 1777461738 | 21.11° C | 41% | 1023.2 hPa | 0 mm | - | 0 W/m² | - |
| 1777460836 | 21.11° C | 41% | 1023.2 hPa | 0 mm | - | 0 W/m² | - |
| 1777459932 | 21.11° C | 42% | 1023.1 hPa | 0 mm | - | 0 W/m² | - |
| 1777459029 | 21.11° C | 42% | 1023.3 hPa | 0 mm | - | 0 W/m² | - |
| 1777458125 | 21.67° C | 40% | 1023 hPa | 0 mm | - | 0 W/m² | - |
| 1777457222 | 21.67° C | 40% | 1023.1 hPa | 0 mm | - | 0 W/m² | - |
| 1777456321 | 22.22° C | 38% | 1023 hPa | 0 mm | - | 0 W/m² | - |
| 1777455415 | 21.67° C | 39% | 1023.3 hPa | 0 mm | - | 0 W/m² | - |
| 1777454511 | 21.67° C | 38% | 1023.2 hPa | 0 mm | - | 0 W/m² | - |
| 1777453608 | 21.67° C | 39% | 1023.1 hPa | 0 mm | - | 0 W/m² | - |
| 1777452705 | 22.78° C | 40% | 1022.8 hPa | 0 mm | - | 0 W/m² | - |
| 1777451803 | 23.33° C | 39% | 1022.8 hPa | 0 mm | - | 0 W/m² | - |
| 1777450904 | 23.33° C | 38% | 1022.8 hPa | 0 mm | - | 0 W/m² | - |
| 1777450004 | 24.44° C | 35% | 1022.5 hPa | 0 mm | - | 2 W/m² | - |
| 1777449104 | 24.44° C | 35% | 1022.6 hPa | 0 mm | - | 10 W/m² | - |
| 1777448198 | 25° C | 34% | 1022.4 hPa | 0 mm | - | 20 W/m² | - |
| 1777447298 | 25.56° C | 33% | 1022 hPa | 0 mm | - | 30 W/m² | - |
| 1777446395 | 26.11° C | 33% | 1022 hPa | 0 mm | - | 49 W/m² | - |
| 1777445496 | 26.67° C | 32% | 1022.2 hPa | 0 mm | - | 61 W/m² | - |
| 1777444590 | 26.67° C | 32% | 1022.2 hPa | 0 mm | - | 92 W/m² | - |
| 1777443686 | 26.67° C | 32% | 1022.1 hPa | 0 mm | - | 90 W/m² | - |
| 1777442787 | 27.22° C | 31% | 1022.2 hPa | 0 mm | - | 110 W/m² | - |
| 1777441886 | 27.22° C | 30% | 1022.3 hPa | 0 mm | - | 106 W/m² | - |
| 1777440984 | 28.33° C | 29% | 1022.3 hPa | 0 mm | - | 205 W/m² | - |
* Rain latest hour (hover to see other rain measurements)
** Current wind speed in m/s (hover to see current wind gust speed)